sat.trackr.live / text

‹ back to catalog

STARLINK-33983

NORAD 63948 · 2025-098Y

PAYLOAD ACTIVE UNKNOWN

§ Identity

Operator
Country
US
Launch date
2025-05-13
Launch site
AFWTR
Launch vehicle
Mass (kg)
RCS (m²)

Purposes: comms

External: N2YO · Heavens-Above · Gunter

§ Orbital elements

Epoch: 2026-09-20T22:25:40.869120Z

Period
94.14 min
Inclination
70.0009°
Eccentricity
0.0003436
Mean motion
15.29587055 rev/d
Perigee alt
474.7 km
Apogee alt
479.4 km
Semi-major
6,855.2 km
B*
4.5583e-4
RAAN
139.9673°
Arg perigee
271.0476°
Mean anomaly
89.0305°
Rev number
7,585

§ Raw data

STARLINK-339831 63948U 25098Y   26263.93450080  .00013002  00000+0  45583-3 0  99952 63948  70.0009 139.9673 0003436 271.0476  89.0305 15.29587055 75856

JSON: /api/v1/satellites/63948 · /tle

For live sub-satellite position, see the globe view (requires WebGL).

§ Visibility from observer

Set your observer location to see the next 7 days of passes ≥ 10°. The values pass through the URL so the page stays shareable.

No JS? Fill the form by hand. The geolocation button needs JavaScript.